Location: Leipzig
(51.3392°N, 12.3528°E)
Time: 14:16:48
(UTC+01:00)

ISS - Pass Details

Date: 13 November 2017
Orbit: 402 x 407 km, 51.6° (Epoch: 23 November)

Event Time Altitude Azimuth Distance (km) Brightness Sun altitude
Exits shadow 06:35:02 - 268° (W) 1,503 -1.5 -7.9°
Reaches altitude 10° 06:35:10 10° 267° (W) 1,457 -1.6 -7.9°
Maximum altitude 06:37:44 22° 215° (SW) 948 -2.1 -7.5°
Drops below altitude 10° 06:40:19 10° 163° (SSE) 1,451 -0.5 -7.2°
Sets 06:42:40 0° 147° (SSE) 2,306 1.0 -6.8°
